Weather History for Jefferson, NC

Change the Weather History Date:

Saturday, January 22, 2000

  Actual Average Record
Temperature  
Mean Temperature 18 °F -  
Max Temperature 23 °F 41 °F 63 °F (1967)
Min Temperature 14 °F 21 °F -1 °F (1970)
Degree Days  
Heating Degree Days 46    
Moisture  
Dew Point 10 °F    
Average Humidity 75    
Maximum Humidity 100    
Minimum Humidity 49    
Precipitation  
Precipitation 0.00 in - - ()
Sea Level Pressure  
Sea Level Pressure 30.00 in    
Wind  
Wind Speed 8 mph (South)    
Max Wind Speed 16 mph    
Max Gust Speed 25 mph    
Visibility 7 miles    
Events Snow    
Averages and records for this station are not official NWS values.
T = Trace of Precipitation, MM = Missing Value Source: NWS Daily Summary

Daily Weather History Graph

Daily Weather History Graph

Search for Another Location

Airport:

Trip Planner

Search our weather history database for the weather conditions in past years. The results will help you decide how hot, cold, wet, or windy it might be!

Date:

Astronomy

Jan. 22, 2000 Rise Set
Actual Time 7:34 AM EST 5:40 PM EST
Civil Twilight 7:06 AM EST 6:08 PM EST
Nautical Twilight 6:34 AM EST 6:39 PM EST
Astronomical Twilight 6:04 AM EST 7:10 PM EST
Moon 7:36 PM EST (1/22) 8:43 AM EST (1/22)
Length of Visible Light 11h 02m
Length of Day
10h 06m
Full, 97% of the Moon is Illuminated
Jan 22
Full
Jan 28
Last Quarter
Feb 5
New
Feb 12
First Quarter
Feb 19
Full

Hourly Weather History & Observations

Time (EST) Temp. Windchill Dew Point Humidity Pressure Visibility Wind Dir Wind Speed Gust Speed Precip Events Conditions
12:16 AM 14.0 °F 6.5 °F -2.2 °F 49% 29.93 in 10.0 mi South 4.6 mph - N/A   Clear
12:36 AM 14.0 °F -1.4 °F -2.2 °F 49% 29.94 in 10.0 mi SSW 15.0 mph 18.4 mph N/A   Clear
12:56 AM 14.0 °F 1.2 °F -2.2 °F 49% 29.95 in 10.0 mi SSW 10.4 mph 19.6 mph N/A   Clear
1:16 AM 14.0 °F -2.0 °F -2.2 °F 49% 29.96 in 10.0 mi WSW 16.1 mph 21.9 mph N/A   Clear
1:36 AM 14.0 °F -0.8 °F -0.4 °F 53% 29.95 in 10.0 mi WSW 13.8 mph 25.3 mph N/A   Clear
1:56 AM 14.0 °F 0.5 °F -0.4 °F 53% 29.95 in 10.0 mi SW 11.5 mph - N/A   Clear
2:16 AM 14.0 °F -0.2 °F 1.4 °F 57% 29.96 in 10.0 mi WSW 12.7 mph 18.4 mph N/A   Clear
2:36 AM 14.0 °F -0.2 °F 1.4 °F 57% 29.97 in 10.0 mi WSW 12.7 mph 17.3 mph N/A   Clear
2:56 AM 14.0 °F 1.2 °F 1.4 °F 57% 29.99 in 10.0 mi SW 10.4 mph - N/A   Clear
3:16 AM 14.0 °F 0.5 °F 3.2 °F 62% 29.98 in 10.0 mi WSW 11.5 mph 19.6 mph N/A   Clear
3:36 AM 14.0 °F 0.5 °F 5.0 °F 67% 29.98 in 10.0 mi WSW 11.5 mph - N/A   Clear
3:56 AM 14.0 °F -0.2 °F 5.0 °F 67% 30.00 in 10.0 mi WSW 12.7 mph - N/A   Clear
4:16 AM 14.0 °F -1.4 °F 5.0 °F 67% 29.99 in 10.0 mi WSW 15.0 mph - N/A   Clear
4:36 AM 14.0 °F 0.5 °F 5.0 °F 67% 30.00 in 10.0 mi West 11.5 mph - N/A   Clear
4:56 AM 14.0 °F 1.2 °F 8.6 °F 79% 30.00 in 10.0 mi West 10.4 mph - N/A   Clear
5:16 AM 15.8 °F 4.2 °F 8.6 °F 73% 30.00 in 10.0 mi West 9.2 mph - N/A   Clear
5:36 AM 15.8 °F 4.2 °F 8.6 °F 73% 29.99 in 10.0 mi West 9.2 mph - N/A   Clear
5:56 AM 15.8 °F 4.2 °F 8.6 °F 73% 30.00 in 10.0 mi West 9.2 mph - N/A   Clear
6:16 AM 15.8 °F 6.1 °F 8.6 °F 73% 30.01 in 10.0 mi West 6.9 mph - N/A   Clear
6:36 AM 15.8 °F 10.2 °F 8.6 °F 73% 30.00 in 10.0 mi West 3.5 mph - N/A   Clear
6:56 AM 15.8 °F 6.1 °F 8.6 °F 73% 30.01 in 10.0 mi WSW 6.9 mph - N/A   Clear
7:16 AM 15.8 °F 3.4 °F 8.6 °F 73% 30.02 in 10.0 mi WSW 10.4 mph - N/A   Clear
7:36 AM 17.6 °F 8.2 °F 8.6 °F 68% 30.03 in 10.0 mi SW 6.9 mph - N/A   Clear
7:56 AM 19.4 °F 12.8 °F 10.4 °F 68% 30.03 in 10.0 mi SW 4.6 mph - N/A   Clear
8:16 AM 19.4 °F - 10.4 °F 68% 30.03 in 10.0 mi Calm Calm - N/A   Clear
8:36 AM 17.6 °F - 10.4 °F 73% 30.03 in 10.0 mi Calm Calm - N/A   Clear
8:56 AM 17.6 °F - 10.4 °F 73% 30.04 in 10.0 mi Calm Calm - N/A   Mostly Cloudy
9:16 AM 17.6 °F - 10.4 °F 73% 30.05 in 10.0 mi Calm Calm - N/A   Scattered Clouds
9:36 AM 17.6 °F - 8.6 °F 68% 30.05 in 10.0 mi Calm Calm - N/A   Scattered Clouds
9:56 AM 17.6 °F - 10.4 °F 73% 30.05 in 10.0 mi Calm Calm - N/A   Scattered Clouds
10:16 AM 19.4 °F - 10.4 °F 68% 30.06 in 10.0 mi Calm Calm - N/A   Mostly Cloudy
10:36 AM 19.4 °F - 10.4 °F 68% 30.07 in 10.0 mi Calm Calm - N/A   Overcast
10:56 AM 19.4 °F - 10.4 °F 68% 30.06 in 10.0 mi Calm Calm - N/A   Overcast
11:16 AM 19.4 °F - 10.4 °F 68% 30.05 in 10.0 mi Calm Calm - N/A   Overcast
11:36 AM 21.2 °F - 12.2 °F 68% 30.05 in 10.0 mi Calm Calm - N/A   Overcast
11:56 AM 21.2 °F 14.9 °F 12.2 °F 68% 30.04 in 10.0 mi SE 4.6 mph - N/A   Overcast
12:16 PM 23.0 °F 18.4 °F 12.2 °F 63% 30.04 in 10.0 mi SE 3.5 mph - N/A   Overcast
12:36 PM 23.0 °F 14.7 °F 14.0 °F 68% 30.03 in 3.0 mi SSE 6.9 mph - 0.00 in Snow Light Snow
12:56 PM 23.0 °F 14.7 °F 15.8 °F 74% 30.01 in 2.0 mi SE 6.9 mph - 0.00 in Snow Light Snow
1:16 PM 21.2 °F 13.6 °F 17.6 °F 86% 30.00 in 1.0 mi ESE 5.8 mph - 0.00 in Snow Light Snow
1:36 PM 19.4 °F 10.4 °F 17.6 °F 93% 30.00 in 1.5 mi ESE 6.9 mph - 0.00 in Snow Light Snow
1:56 PM 19.4 °F 9.5 °F 15.8 °F 86% 30.00 in 1.5 mi ESE 8.1 mph - 0.00 in Snow Light Snow
2:16 PM 19.4 °F 10.4 °F 17.6 °F 93% 29.99 in 1.0 mi ESE 6.9 mph - 0.00 in Snow Light Snow
2:36 PM 19.4 °F 12.8 °F 17.6 °F 93% 29.98 in 1.0 mi ESE 4.6 mph - 0.00 in Snow Light Snow
2:56 PM 19.4 °F 11.5 °F 17.6 °F 93% 29.98 in 0.8 mi ESE 5.8 mph - 0.00 in Snow Light Snow
3:16 PM 19.4 °F 10.4 °F 17.6 °F 93% 29.97 in 0.8 mi East 6.9 mph - 0.00 in Snow Light Snow
3:36 PM 19.4 °F 11.5 °F 17.6 °F 93% 29.97 in 0.8 mi ESE 5.8 mph - 0.00 in Snow Light Snow
3:56 PM 19.4 °F 10.4 °F 17.6 °F 93% 29.97 in 0.8 mi SE 6.9 mph - 0.00 in Snow Light Snow
4:16 PM 19.4 °F 11.5 °F 17.6 °F 93% 29.97 in 1.2 mi SE 5.8 mph - 0.00 in Snow Light Snow
4:36 PM 19.4 °F 10.4 °F 17.6 °F 93% 29.97 in 0.8 mi SE 6.9 mph - 0.00 in Snow Light Snow
4:56 PM 19.4 °F 10.4 °F 17.6 °F 93% 29.97 in 0.5 mi SE 6.9 mph - 0.00 in Snow Snow
5:16 PM 19.4 °F 10.4 °F 17.6 °F 93% 29.97 in 1.2 mi SE 6.9 mph - 0.00 in Snow Light Snow
5:36 PM 19.4 °F 10.4 °F 17.6 °F 93% 29.98 in 0.8 mi SE 6.9 mph - 0.00 in Snow Light Snow
5:56 PM 19.4 °F 11.5 °F 17.6 °F 93% 29.99 in 1.0 mi SE 5.8 mph - 0.00 in Snow Snow
6:16 PM 17.6 °F 8.2 °F 17.6 °F 100% 29.98 in 1.0 mi SE 6.9 mph - 0.00 in Snow Snow
6:36 PM 17.6 °F 9.3 °F 17.6 °F 100% 29.97 in 0.8 mi SE 5.8 mph - 0.00 in Snow Snow
6:56 PM 17.6 °F 10.7 °F 17.6 °F 100% 29.98 in 0.8 mi SE 4.6 mph - 0.00 in Snow Snow
7:16 PM 17.6 °F 8.2 °F 17.6 °F 100% 29.97 in 1.0 mi SE 6.9 mph - 0.00 in Snow Snow
7:36 PM 17.6 °F 9.3 °F 17.6 °F 100% 29.97 in 1.5 mi SE 5.8 mph - 0.00 in Snow Light Snow
7:56 PM 19.4 °F 12.8 °F 17.6 °F 93% 29.97 in 1.5 mi SE 4.6 mph - 0.00 in Snow Light Snow
8:16 PM 19.4 °F 11.5 °F 17.6 °F 93% 29.97 in 2.0 mi SE 5.8 mph - 0.00 in Snow Light Snow
8:36 PM 19.4 °F 10.4 °F 17.6 °F 93% 29.97 in 1.5 mi ESE 6.9 mph - 0.00 in Snow Light Snow
8:56 PM 19.4 °F 11.5 °F 17.6 °F 93% 29.97 in 2.0 mi SE 5.8 mph - 0.00 in Snow Light Snow
9:16 PM 19.4 °F 10.4 °F 17.6 °F 93% 29.96 in 2.5 mi SE 6.9 mph - 0.00 in Snow Light Snow
9:36 PM 19.4 °F 10.4 °F 17.6 °F 93% 29.97 in 2.0 mi ESE 6.9 mph - 0.00 in Snow Light Snow
9:56 PM 19.4 °F 10.4 °F 17.6 °F 93% 29.96 in 3.0 mi SE 6.9 mph - N/A   Overcast
10:16 PM 19.4 °F 10.4 °F 17.6 °F 93% 29.96 in 3.0 mi ESE 6.9 mph - N/A   Overcast
10:36 PM 19.4 °F 11.5 °F 19.4 °F 100% 29.96 in 5.0 mi ESE 5.8 mph - 0.01 in   Overcast
10:56 PM 19.4 °F 11.5 °F 19.4 °F 100% 29.95 in 5.0 mi ESE 5.8 mph - N/A   Overcast
11:16 PM 19.4 °F 10.4 °F 19.4 °F 100% 29.95 in 5.0 mi SE 6.9 mph - N/A   Overcast
11:36 PM 19.4 °F 11.5 °F 19.4 °F 100% 29.95 in 5.0 mi SE 5.8 mph - N/A   Overcast
11:56 PM 21.2 °F 13.6 °F 19.4 °F 93% 29.94 in 7.0 mi SE 5.8 mph - N/A   Overcast